Header for Extended Forecast Station List Page

Search by: ID | Name | Date | Parm | Value | Avg | % Avg
Sort by: ID | Name | Date | Parm | Value | Avg | % Avg

Enter search or view all records.

Click on id for station plot
#IDNameDateParmValueAvg% Avg
0DEDI1DEADWOOD-NEAR LOWMAN12-09-2019INFLOW (KAF)142069
1RIDI1WILLOW CREEK-RIRIE DAM12-09-2019INFLOW (KAF)1511134
2BERO3MALHEUR-AGENCY VALLEY DAM12-09-2019INFLOW (KAF)163250
3LWRI1LITTLE WOOD-LITTLE WOOD DAM12-09-2019INFLOW (KAF)171891
4BUDW1BUMPING-BUMPING LAKE DAM12-09-2019INFLOW (KAF)193752
5STRM8ST. REGIS-NEAR ST. REGIS12-09-2019DISCHARGE (KAF)205736
6ARDW1ENTIAT-NEAR ARDENVOIR12-09-2019DISCHARGE (KAF)202486
7HWRI1BIG LOST-AT HOWELL RANCH NEAR CHILLY12-09-2019DISCHARGE (KAF)2119111
8BULO3BULLY CREEK-BULLY CREEK DAM12-09-2019INFLOW (KAF)248281
9WRMO3MALHEUR-WARM SPRINGS DAM12-09-2019INFLOW (KAF)335955
10MILI1SNAKE-AT MILNER12-09-2019DISCHARGE (KAF)347455
11HOTI1BRUNEAU-NEAR HOT SPRINGS12-09-2019DISCHARGE (KAF)364385
12MACI1BIG LOST-MACKAY RESERVOIR NEAR MACKAY12-09-2019INFLOW (KAF)375786
13SATI1ST MARIES-NEAR SANTA12-09-2019DISCHARGE (KAF)397354
14RILW1TIETON-RIMROCK LAKE NEAR RIMROCK12-09-2019INFLOW (KAF)407553
15HALI1BIG WOOD-AT HAILEY12-09-2019DISCHARGE (KAF)4139107
16MYKO3MCKAY CREEK-NEAR PILOT ROCK12-09-2019DISCHARGE (KAF)4234122
17KADW1KACHESS-KACHESS DAM12-09-2019INFLOW (KAF)475093
18TNAW1TEANAWAY-BELOW FORKS12-09-2019DISCHARGE (KAF)476870
19MAGI1BIG WOOD-MAGIC DAM12-09-2019INFLOW (KAF)4847101
20KEDW1YAKIMA-KEECHELUS LAKE12-09-2019INFLOW (KAF)5151101
21RCCM8ROCK CREEK-NEAR CLINTON12-09-2019DISCHARGE (KAF)5346115
22EASW1YAKIMA-AT EASTON12-09-2019DISCHARGE (KAF)578567
23DLGM8CLARK FORK-AT DEER LODGE12-09-2019DISCHARGE (KAF)596395
24PIHI1PORTNEUF-AT POCATELLO12-09-2019DISCHARGE (KAF)597776
25GIBO3UMATILLA-NEAR GIBBON12-09-2019DISCHARGE (KAF)6055108
26NACW1NACHES-NEAR NACHES12-09-2019DISCHARGE (KAF)6312550
27CLFW1NACHES-NEAR CLIFFDEL12-09-2019DISCHARGE (KAF)6413547
28WGCM8MF FLATHEAD-NEAR WEST GLACIER12-09-2019DISCHARGE (KAF)7515349
29ARAI1SF BOISE-ANDERSON RANCH DAM12-09-2019INFLOW (KAF)7610076
30IPDI1HENRYS FORK-ISLAND PARK DAM12-09-2019INFLOW (KAF)8211274
31CLUW1CLE ELUM-CLE ELUM LAKE12-09-2019INFLOW (KAF)8711079
32TEAI1TETON-NEAR ST. ANTHONY12-09-2019DISCHARGE (KAF)879889
33CSDI1NF PAYETTE-CASCADE DAM12-09-2019INFLOW (KAF)8911478
34PATW1METHOW-NEAR PATEROS12-09-2019DISCHARGE (KAF)9510491
35JLKW4SNAKE-JACKSON LAKE AT DAM12-09-2019INFLOW (KAF)9711882
36CHEI1FALL RIVER-NEAR CHESTER12-09-2019DISCHARGE (KAF)10311094
37UMAO3UMATILLA-NEAR UMATILLA12-09-2019DISCHARGE (KAF)11515077
38MONO3NF JOHN DAY-AT MONUMENT12-09-2019DISCHARGE (KAF)11527142
39PDTO3UMATILLA-AT PENDLETON12-09-2019DISCHARGE (KAF)12014682
40PRTI1PRIEST-NEAR PRIEST RIVER12-09-2019DISCHARGE (KAF)12722756
41CHDW1CHELAN-LAKE CHELAN DAM12-09-2019INFLOW (KAF)13717778
42FCFM8NF FLATHEAD-NEAR COLUMBIA FALLS12-09-2019DISCHARGE (KAF)14617285
43BIGI1BOISE-AT GLENWOOD BRIDGE12-09-2019DISCHARGE (KAF)14853278
44LAUW1KETTLE-AT LAURIER12-09-2019DISCHARGE (KAF)154150103
45DRMM8CLARK FORK-NR DRUMMOND12-09-2019DISCHARGE (KAF)157MM
46OWYO3OWYHEE-OWYHEE DAM12-09-2019INFLOW (KAF)16518689
47TCHW1WALLA WALLA-NEAR TOUCHET12-09-2019DISCHARGE (KAF)16519983
48BONM8BLACKFOOT-NEAR BONNER12-09-2019DISCHARGE (KAF)172142121
49WSRI1WEISER-NEAR WEISER12-09-2019DISCHARGE (KAF)19620895
50SERO3JOHN DAY-AT SERVICE CK12-09-2019DISCHARGE (KAF)21143948
51TONW1OKANOGAN-NEAR TONASKET12-09-2019DISCHARGE (KAF)21829873
52LUCI1BOISE-LUCKY PEAK DAM12-09-2019INFLOW (KAF)220MM
53HHWM8SF FLATHEAD-HUNGRY HORSE DAM12-09-2019INFLOW (KAF)22225089
54BITM8BITTERROOT-NEAR MISSOULA12-09-2019DISCHARGE (KAF)237233102
55UMTW1YAKIMA-AT UMTANUM12-09-2019DISCHARGE (KAF)24734372
56UNDW1WHITE SALMON-NEAR UNDERWOOD12-09-2019DISCHARGE (KAF)25231281
57HODO3HOOD-NEAR TUCKER BRIDGE12-09-2019DISCHARGE (KAF)25427991
58JKSW4SNAKE-NEAR JACKSON12-09-2019DISCHARGE (KAF)26030585
59PESW1WENATCHEE-AT PESHASTIN12-09-2019DISCHARGE (KAF)26133179
60PITW1KLICKITAT-NEAR PITT12-09-2019DISCHARGE (KAF)28040270
61PARI1BOISE-NEAR PARMA12-09-2019DISCHARGE (KAF)293233126
62EMMI1PAYETTE-NEAR EMMETT12-09-2019DISCHARGE (KAF)29546264
63ALPW4SNAKE-NEAR ALPINE12-09-2019DISCHARGE (KAF)32037585
64TRYO3GRANDE RONDE-TROY12-09-2019DISCHARGE (KAF)33453862
65PARW1YAKIMA-NEAR PARKER12-09-2019DISCHARGE (KAF)33958858
66ANTI1HENRYS FORK-AT ST. ANTHONY12-09-2019DISCHARGE (KAF)34634999
67ABOM8CLARK FORK-ABOVE MISSOULA12-09-2019DISCHARGE (KAF)398354112
68REXI1HENRYS FORK-AT REXBURG12-09-2019DISCHARGE (KAF)41743596
69KIOW1YAKIMA-AT KIONA12-09-2019DISCHARGE (KAF)46886954
70HEII1SNAKE-NEAR HEISE12-09-2019DISCHARGE (KAF)51157289
71PLDI1SF SNAKE-PALISADES DAM12-09-2019INFLOW (KAF)52660587
72BELM8CLARK FORK-BELOW MISSOULA12-09-2019DISCHARGE (KAF)635594107
73SNAI1SNAKE-AT BLACKFOOT12-09-2019DISCHARGE (KAF)65476486
74BFTI1SNAKE-NEAR BLACKFOOT12-09-2019DISCHARGE (KAF)65981181
75ORFI1CLEARWATER-AT OROFINO12-09-2019DISCHARGE (KAF)732104270
76SHYI1SNAKE-NEAR SHELLEY12-09-2019DISCHARGE (KAF)73683788
77DWRI1NF CLEARWATER-DWORSHAK DAM12-09-2019INFLOW (KAF)73981790
78LYDM8KOOTENAI-LIBBY DAM12-09-2019INFLOW (KAF)75678796
79SIFI1SNAKE-AB EAGLE ROCK NR IDAHO FALLS12-09-2019DISCHARGE (KAF)75682292
80SRGM8CLARK FORK-AT ST REGIS12-09-2019DISCHARGE (KAF)77180496
81SPOW1SPOKANE-AT SPOKANE12-09-2019DISCHARGE (KAF)787MM
82COEI1COEUR D ALENE-COEUR D ALENE LAKE12-09-2019INFLOW (KAF)866123170
83CFMM8FLATHEAD-AT COLUMBIA FALLS12-09-2019DISCHARGE (KAF)882115277
84WHBI1SALMON-AT WHITEBIRD12-09-2019DISCHARGE (KAF)991111489
85KERM8FLATHEAD-KERR DAM12-09-2019INFLOW (KAF)1020152067
86LLKW1SPOKANE-AT LONGLAKE12-09-2019INFLOW (KAF)1059173361
87AFRI1SNAKE-AMERICAN FALLS RESERVOIR12-09-2019INFLOW (KAF)1307154185
88SPDI1CLEARWATER-AT SPALDING12-09-2019DISCHARGE (KAF)1310225758
89MODO3DESCHUTES-AT MOODY NR BIGGS12-09-2019DISCHARGE (KAF)1443157792
90LEOI1KOOTENAI-AT LEONIA12-09-2019DISCHARGE (KAF)14851307114
91SWAI1SNAKE-BELOW SWAN FALLS12-09-2019DISCHARGE (KAF)1784270866
92NOXM8CLARK FORK-NOXON RAPIDS DAM12-09-2019INFLOW (KAF)2755376673
93WEII1SNAKE-AT WEISER12-09-2019DISCHARGE (KAF)2860422068
94CABI1CLARK FORK-CABINET GORGE DAM12-09-2019INFLOW (KAF)3049393078
95BRNI1SNAKE-BROWNLEE DAM12-09-2019INFLOW (KAF)3098442770
96ALFW1PEND OREILLE-ALBENI FALLS DAM12-09-2019INFLOW (KAF)3366465972
97ANAW1SNAKE-NEAR ANATONE12-09-2019DISCHARGE (KAF)4733684669
98LGDW1SNAKE-LOWER GRANITE DAM12-09-2019INFLOW (KAF)6043926665
99LGSW1SNAKE-LITTLE GOOSE DAM12-09-2019INFLOW (KAF)6043933165
100LMNW1SNAKE-LOWER MONUMENTAL DAM12-09-2019INFLOW (KAF)6299957766
101IHDW1SNAKE-ICE HARBOR DAM12-09-2019INFLOW (KAF)6299949566
102CIBW1COLUMBIA-AT INTL BOUNDARY12-09-2019DISCHARGE (KAF)17720MM
103GCDW1COLUMBIA-GRAND COULEE DAM12-09-2019INFLOW (KAF)1905617139111
104CHJW1COLUMBIA-CHIEF JOSEPH DAM12-09-2019INFLOW (KAF)192032316683
105WELW1COLUMBIA-WELLS DAM12-09-2019INFLOW (KAF)195202357683
106RRHW1COLUMBIA-ROCKY REACH DAM12-09-2019INFLOW (KAF)199022412982
107WANW1COLUMBIA-WANAPUM DAM12-09-2019INFLOW (KAF)201602113395
108PRWW1COLUMBIA-PRIEST RAPIDS DAM12-09-2019INFLOW (KAF)201632140094
109MCDW1COLUMBIA-MCNARY DAM12-09-2019INFLOW (KAF)270623314082
110JDAO3COLUMBIA-JOHN DAY DAM12-09-2019INFLOW (KAF)285733486082
111TDAO3COLUMBIA-THE DALLES DAM12-09-2019INFLOW (KAF)291833918574
112BONO3COLUMBIA-BONNEVILLE DAM12-09-2019INFLOW (KAF)299524173372
113BFEI1KOOTENAI-AT BONNERS FERRY12-09-2019STAGE (FT)MMM
114HOPI1PEND OREILLE-PEND OREILLE LAKE NR HOPE12-09-2019LAKE ELEVATION (FT)MMM
115SJMI1ST JOE-AT ST MARIES12-09-2019STAGE (FT)MMM